When you browse on this site, cookies collect data to enhance your experience and personalize the content and advertising you see.
Visit our Privacy Policy to learn more. By continuing to use the site, you agree to this use of cookies and data.
  • In Hungary
  • List of Countries
  • For 7 days
  • Water Temperature
  • Satellite Maps
  • Weather Map
  • News
  • Weather Widgets
  • user-avatar
    Login

    Hourly Weather Perth

    Today, 23 January, Wednesday

    Time Temperature Precipitation Wind Pressure Humidity
    00:00 +19°C° 0 mm 4 mps 752 mmHg 80%
    01:00 +19°C° 0 mm 5 mps 752 mmHg 78%
    02:00 +19°C° 0 mm 6 mps 752 mmHg 75%
    03:00 +17°C° 0.1 mm 6 mps 752 mmHg 73%
    04:00 +17°C° 0.1 mm 5 mps 752 mmHg 71%
    05:00 +17°C° 0.1 mm 4 mps 752 mmHg 69%
    06:00 +17°C° 0.1 mm 5 mps 752 mmHg 67%
    07:00 +19°C° 0.1 mm 6 mps 752 mmHg 65%
    08:00 +18°C° 0.1 mm 7 mps 752 mmHg 63%
    09:00 +20°C° 0.1 mm 8 mps 752 mmHg 60%
    10:00 +21°C° 0.1 mm 9 mps 752 mmHg 56%
    11:00 +21°C° 0.1 mm 10 mps 751 mmHg 52%
    12:00 +21°C° 0.3 mm 10 mps 751 mmHg 60%
    13:00 +19°C° 0.3 mm 10 mps 751 mmHg 67%
    14:00 +19°C° 0.3 mm 10 mps 751 mmHg 75%
    15:00 +19°C° 0.2 mm 10 mps 752 mmHg 73%
    16:00 +19°C° 0.2 mm 9 mps 752 mmHg 71%
    17:00 +19°C° 0.2 mm 9 mps 753 mmHg 69%
    18:00 +19°C° 0.1 mm 9 mps 753 mmHg 69%
    19:00 +20°C° 0.1 mm 8 mps 754 mmHg 70%
    20:00 +20°C° 0.1 mm 8 mps 754 mmHg 70%
    21:00 +18°C° 0.1 mm 7 mps 755 mmHg 71%
    22:00 +18°C° 0.1 mm 7 mps 755 mmHg 71%
    23:00 +19°C° 0.1 mm 6 mps 756 mmHg 72%

    Tomorrow, 24 January, Thursday

    Time Temperature Precipitation Wind Pressure Humidity
    00:00 +19°C° 0.1 mm 6 mps 756 mmHg 73%
    01:00 +19°C° 0.1 mm 6 mps 756 mmHg 74%
    02:00 +19°C° 0.1 mm 6 mps 756 mmHg 75%
    03:00 +19°C° 0.1 mm 5 mps 756 mmHg 75%
    04:00 +19°C° 0.1 mm 5 mps 756 mmHg 75%
    05:00 +17°C° 0.1 mm 5 mps 756 mmHg 75%
    06:00 +19°C° 0 mm 5 mps 757 mmHg 73%
    07:00 +19°C° 0 mm 5 mps 757 mmHg 70%
    08:00 +20°C° 0 mm 5 mps 758 mmHg 68%
    09:00 +21°C° 0 mm 5 mps 758 mmHg 63%
    10:00 +22°C° 0 mm 5 mps 758 mmHg 59%
    11:00 +23°C° 0 mm 5 mps 758 mmHg 54%
    12:00 +25°C° 0 mm 5 mps 758 mmHg 53%
    13:00 +24°C° 0 mm 6 mps 758 mmHg 52%
    14:00 +24°C° 0 mm 6 mps 758 mmHg 50%
    15:00 +24°C° 0 mm 6 mps 758 mmHg 51%
    16:00 +24°C° 0 mm 6 mps 757 mmHg 52%
    17:00 +24°C° 0 mm 6 mps 757 mmHg 52%
    18:00 +22°C° 0 mm 6 mps 758 mmHg 56%
    19:00 +21°C° 0 mm 5 mps 758 mmHg 59%
    20:00 +20°C° 0 mm 5 mps 759 mmHg 62%
    21:00 +19°C° 0 mm 5 mps 759 mmHg 60%
    22:00 +19°C° 0 mm 4 mps 759 mmHg 59%
    23:00 +19°C° 0 mm 4 mps 760 mmHg 57%

    Day after tomorrow, 25 January, Friday

    Time Temperature Precipitation Wind Pressure Humidity
    00:00 +18°C° 0 mm 4 mps 760 mmHg 57%
    01:00 +18°C° 0 mm 4 mps 759 mmHg 57%
    02:00 +18°C° 0 mm 4 mps 759 mmHg 57%
    03:00 +17°C° 0 mm 4 mps 759 mmHg 60%
    04:00 +17°C° 0 mm 4 mps 759 mmHg 62%
    05:00 +15°C° 0 mm 4 mps 759 mmHg 65%
    06:00 +17°C° 0 mm 4 mps 760 mmHg 61%
    07:00 +18°C° 0 mm 4 mps 760 mmHg 58%
    08:00 +19°C° 0 mm 4 mps 760 mmHg 54%
    09:00 +22°C° 0 mm 4 mps 760 mmHg 48%
    10:00 +25°C° 0 mm 3 mps 760 mmHg 42%
    11:00 +27°C° 0 mm 2 mps 760 mmHg 35%
    12:00 +29°C° 0 mm 3 mps 759 mmHg 33%
    13:00 +30°C° 0 mm 4 mps 758 mmHg 31%
    14:00 +32°C° 0 mm 4 mps 758 mmHg 29%
    15:00 +30°C° 0 mm 5 mps 758 mmHg 33%
    16:00 +28°C° 0 mm 6 mps 757 mmHg 36%
    17:00 +27°C° 0 mm 7 mps 757 mmHg 40%
    18:00 +24°C° 0 mm 6 mps 758 mmHg 47%
    19:00 +22°C° 0 mm 6 mps 758 mmHg 55%
    20:00 +21°C° 0 mm 6 mps 759 mmHg 63%
    21:00 +21°C° 0 mm 5 mps 759 mmHg 61%
    22:00 +20°C° 0 mm 5 mps 760 mmHg 59%
    23:00 +20°C° 0 mm 5 mps 760 mmHg 57%

    26 January, Saturday

    Time Temperature Precipitation Wind Pressure Humidity
    00:00 +20°C° 0 mm 5 mps 760 mmHg 57%
    01:00 +19°C° 0 mm 6 mps 759 mmHg 58%
    02:00 +19°C° 0 mm 6 mps 759 mmHg 58%
    03:00 +19°C° 0 mm 6 mps 759 mmHg 59%
    04:00 +17°C° 0 mm 6 mps 759 mmHg 60%
    05:00 +17°C° 0 mm 6 mps 759 mmHg 61%
    06:00 +19°C° 0 mm 6 mps 760 mmHg 58%
    07:00 +20°C° 0 mm 6 mps 761 mmHg 54%
    08:00 +21°C° 0 mm 6 mps 761 mmHg 50%
    09:00 +23°C° 0 mm 5 mps 761 mmHg 44%
    10:00 +27°C° 0 mm 5 mps 761 mmHg 37%
    11:00 +29°C° 0 mm 5 mps 761 mmHg 31%
    12:00 +32°C° 0 mm 4 mps 760 mmHg 27%
    13:00 +33°C° 0 mm 4 mps 759 mmHg 24%
    14:00 +35°C° 0 mm 4 mps 758 mmHg 21%
    15:00 +35°C° 0 mm 5 mps 758 mmHg 21%
    16:00 +35°C° 0 mm 5 mps 758 mmHg 21%
    17:00 +35°C° 0 mm 5 mps 758 mmHg 22%
    18:00 +33°C° 0 mm 5 mps 758 mmHg 23%
    19:00 +30°C° 0 mm 4 mps 758 mmHg 25%
    20:00 +29°C° 0 mm 4 mps 759 mmHg 26%
    21:00 +28°C° 0 mm 5 mps 759 mmHg 27%
    22:00 +27°C° 0 mm 6 mps 760 mmHg 28%
    23:00 +27°C° 0 mm 6 mps 760 mmHg 29%

    27 January, Sunday

    Time Temperature Precipitation Wind Pressure Humidity
    00:00 +24°C° 0 mm 7 mps 760 mmHg 36%
    01:00 +23°C° 0 mm 7 mps 760 mmHg 43%
    02:00 +21°C° 0 mm 7 mps 760 mmHg 50%
    03:00 +21°C° 0 mm 7 mps 760 mmHg 51%
    04:00 +20°C° 0 mm 6 mps 760 mmHg 52%
    05:00 +20°C° 0 mm 6 mps 760 mmHg 53%
    06:00 +21°C° 0 mm 6 mps 760 mmHg 49%
    07:00 +22°C° 0 mm 6 mps 761 mmHg 45%
    08:00 +23°C° 0 mm 6 mps 761 mmHg 41%
    09:00 +27°C° 0 mm 5 mps 760 mmHg 36%
    10:00 +30°C° 0 mm 5 mps 760 mmHg 32%
    11:00 +34°C° 0 mm 4 mps 760 mmHg 27%
    12:00 +35°C° 0 mm 4 mps 759 mmHg 25%
    13:00 +37°C° 0 mm 3 mps 758 mmHg 23%
    14:00 +39°C° 0 mm 3 mps 757 mmHg 21%
    15:00 +38°C° 0 mm 3 mps 757 mmHg 20%
    16:00 +38°C° 0 mm 4 mps 756 mmHg 20%
    17:00 +39°C° 0 mm 5 mps 756 mmHg 19%
    18:00 +36°C° 0 mm 4 mps 756 mmHg 21%
    19:00 +33°C° 0 mm 4 mps 757 mmHg 24%
    20:00 +30°C° 0 mm 4 mps 757 mmHg 26%
    21:00 +30°C° 0 mm 4 mps 757 mmHg 23%
    22:00 +30°C° 0 mm 4 mps 757 mmHg 21%
    23:00 +29°C° 0 mm 5 mps 757 mmHg 18%

    28 January, Monday

    Time Temperature Precipitation Wind Pressure Humidity
    00:00 +29°C° 0 mm 5 mps 757 mmHg 20%
    01:00 +28°C° 0 mm 5 mps 757 mmHg 22%
    02:00 +28°C° 0 mm 6 mps 757 mmHg 24%
    03:00 +27°C° 0 mm 5 mps 757 mmHg 29%
    04:00 +26°C° 0 mm 5 mps 757 mmHg 33%
    05:00 +25°C° 0 mm 5 mps 757 mmHg 38%
    06:00 +26°C° 0 mm 5 mps 757 mmHg 37%
    07:00 +27°C° 0 mm 5 mps 757 mmHg 35%
    08:00 +28°C° 0 mm 5 mps 757 mmHg 34%
    09:00 +31°C° 0 mm 3 mps 757 mmHg 29%
    10:00 +36°C° 0 mm 2 mps 756 mmHg 24%
    11:00 +39°C° 0 mm 1 mps 756 mmHg 19%
    12:00 +40°C° 0 mm 2 mps 755 mmHg 18%
    13:00 +41°C° 0 mm 4 mps 754 mmHg 18%
    14:00 +42°C° 0 mm 5 mps 754 mmHg 18%
    15:00 +41°C° 0 mm 5 mps 754 mmHg 18%
    16:00 +40°C° 0 mm 5 mps 754 mmHg 19%
    17:00 +39°C° 0 mm 5 mps 753 mmHg 19%
    18:00 +36°C° 0 mm 5 mps 754 mmHg 22%
    19:00 +34°C° 0 mm 5 mps 754 mmHg 25%
    20:00 +32°C° 0 mm 5 mps 754 mmHg 27%
    21:00 +32°C° 0 mm 4 mps 755 mmHg 27%
    22:00 +30°C° 0 mm 4 mps 755 mmHg 26%
    23:00 +30°C° 0 mm 4 mps 755 mmHg 26%
    Show more